2022-056C (52718 NORAD) Tracking and Keplerian Element Data
This shows tracking and keplerian element data for the satellite.
Feedback or suggestion? Click here.
Element | Value |
Catalog | 52718 |
Name | 2022-056C |
Epoch Orbit | 372 |
Epoch Day | 166.93274828 |
Epoch Year | 2022 |
RAAN | 308.5215 |
Inclination | 86.0012 |
Eccentricity | 0.0013769 |
Argument of Perigee | 211.301 |
Mean Anonmoly | 148.7352 |
Mean Motion | 14.0333568 |
Decay Rate | 7.9E-07 |
L1 | 1 52718U 22056C 22166.93274828 .00000079 00000+0 38550-4 0 9998 |
L2 | 2 52718 86.0012 308.5215 0013769 211.3010 148.7352 14.03335680 3725 |
Live tracking and technical data element details for 2022-056C (NORAD 52718). 2022-056C can be tracked NOW for your location showing map with azimuth and elevation plus other details from your city location.
Track the satellite on the map from your city or location and see movement details for azimuth, elevation, latitude, longitude, range, height, and movement on the map or in text.
IsCatalogInMostPopularTable: catalog: 52718, numindb: 3
Update: records affected: 1
GetName: 52718 2022-056C
Hit Count: updated at: Mon, 27 Jun 2022 05:08:20 GMT